Zurück zum Katalog

COSMOS 1275 DEB

LostPO
NORAD 42096·DEBRIS·🇷🇺 Russia

Gestartet Jun 4, 1981 von Plesetsk Cosmodrome

Loading…

Nächste Überflüge (nächste 24 Stunden)

TLE

VeraltetSource: Space-Track

Epoche: Sep 24, 2024, 14:55 UTC

1 42096U 81053PG  24268.62197170  .00022802  00000-0  90307-2 0  9998
2 42096  82.7185  21.0614 0045622 183.0255 177.0662 14.28183173556262

Verfolge COSMOS 1275 DEB in Echtzeit mit AllMySat

Download on the App Store